Terug naar catalogus

STARLINK-36507

ActiefCommunicatieVLEO
NORAD 67409·PAYLOAD·🇺🇸 United States

Gelanceerd Jan 12, 2026 vanaf Cape Canaveral Space Force Station

Loading…

Volgende Passages (komende 24 uur)

TLE

VersSource: CelesTrak SupGP

Epoch: Sep 15, 2026, 03:53 UTC

1 67409C 26005F   26258.16229167 -.00040261  00000+0 -14585-2 0  2583
2 67409  43.0007 248.1835 0001407 270.0705 358.8263 15.27591997    17

Volg STARLINK-36507 in realtime met AllMySat

Download on the App Store